Weather History for LBSF - January, 2013

Change the Weather History Date:

Saturday, January 12, 2013

  Actual Average Record
Temperature  
Mean Temperature 26 °F -  
Max Temperature 32 °F 38 °F 50 °F (2014)
Min Temperature 21 °F 25 °F 8 °F (2009)
Degree Days  
Heating Degree Days 38    
Moisture  
Dew Point 27 °F    
Average Humidity 91    
Maximum Humidity 100    
Minimum Humidity 64    
Precipitation  
Precipitation 0.00 in 0.04 in - ()
Sea Level Pressure  
Sea Level Pressure 29.94 in    
Wind  
Wind Speed 7 mph ()    
Max Wind Speed 18 mph    
Max Gust Speed 27 mph    
Visibility 3.9 miles    
Events Fog , Rain , Snow    
Averages and records for this station are not official NWS values.
T = Trace of Precipitation, MM = Missing Value Source: Averaged Metar Reports

Daily Weather History Graph

Daily Weather History Graph

Search for Another Location

Airport or City:

Trip Planner

Search our weather history database for the weather conditions in past years. The results will help you decide how hot, cold, wet, or windy it might be!

Date:

Astronomy

Jan. 12, 2013 Rise Set
Actual Time 7:55 AM EET 5:14 PM EET
Civil Twilight 7:23 AM EET 5:46 PM EET
Nautical Twilight 6:48 AM EET 6:21 PM EET
Astronomical Twilight 6:14 AM EET 6:55 PM EET
Moon 7:58 AM EET (1/12) 6:23 PM EET (1/12)
Length of Visible Light 10h 22m
Length of Day
9h 19m
New Moon, 1% of the Moon is Illuminated
Jan 12
New Moon
Jan 19
First Quarter
Jan 27
Full
Feb 3
Last Quarter
Feb 10
New

Hourly Weather History & Observations

Time (EET) Temp. Windchill Dew Point Humidity Pressure Visibility Wind Dir Wind Speed Gust Speed Precip Events Conditions
12:00 AM 30.2 °F 25.5 °F 30.2 °F 100% 29.83 in 0.6 mi South 4.5 mph - N/A Fog Light Freezing Fog
12:30 AM 30.2 °F - 30.2 °F 100% 29.80 in 0.7 mi Variable 2.2 mph - N/A   Mostly Cloudy
1:00 AM 30.2 °F - 30.2 °F 100% 29.80 in 0.8 mi NE 2.2 mph - N/A Rain Light Freezing Rain
1:30 AM 28.4 °F - 28.4 °F 100% 29.80 in 0.7 mi Variable 2.2 mph - N/A Rain Light Freezing Rain
2:00 AM 33 °F - 31 °F 88% 29.88 in 3 mi Calm Calm - - Snow Light Snow
2:00 AM 28.4 °F 23.4 °F 28.4 °F 100% 29.80 in 0.7 mi WSW 4.5 mph - N/A   Light Freezing Drizzle
2:30 AM 32.0 °F - 32.0 °F 100% 29.80 in 0.7 mi Variable 2.2 mph - N/A   Light Drizzle
3:00 AM 32.0 °F - 32.0 °F 100% 29.80 in 0.7 mi Variable 2.2 mph - N/A   Light Freezing Drizzle
3:30 AM 32.0 °F 27.6 °F 32.0 °F 100% 29.80 in 0.7 mi Variable 4.5 mph - N/A Rain Light Freezing Rain
4:00 AM 32.0 °F 27.6 °F 32.0 °F 100% 29.80 in 0.7 mi Variable 4.5 mph - N/A Rain Light Freezing Rain
4:30 AM 30.2 °F 25.5 °F 30.2 °F 100% 29.80 in 0.7 mi West 4.5 mph - N/A Rain Light Freezing Rain
5:00 AM 33 °F - 31 °F 92% 29.88 in 3 mi Calm Calm - - Snow Snow
5:00 AM 30.2 °F 23.5 °F 30.2 °F 100% 29.80 in 0.7 mi West 6.7 mph - N/A Rain , Snow Light Freezing Rain
5:30 AM 32.0 °F 24.3 °F 32.0 °F 100% 29.83 in 0.5 mi West 8.9 mph - N/A Snow Snow
6:00 AM 32.0 °F 24.3 °F 32.0 °F 100% 29.83 in 0.7 mi West 8.9 mph - N/A Snow Snow
6:30 AM 32.0 °F 22.2 °F 32.0 °F 100% 29.83 in 3.7 mi West 13.4 mph - N/A Snow Light Snow
7:00 AM 32.0 °F 23.2 °F 32.0 °F 100% 29.86 in 5.0 mi West 11.2 mph - N/A Snow Light Snow
7:30 AM 32.0 °F 23.2 °F 32.0 °F 100% 29.86 in 1.4 mi West 11.2 mph - N/A Snow Snow
8:00 AM 32 °F - 31 °F 97% 29.94 in 2 mi West 2.2 mph - - Snow Snow
8:00 AM 32.0 °F 23.2 °F 32.0 °F 100% 29.89 in 1.3 mi West 11.2 mph - N/A Snow Snow
8:30 AM 32.0 °F 23.2 °F 32.0 °F 100% 29.89 in 1.9 mi West 11.2 mph - N/A Snow Light Snow
9:00 AM 32.0 °F 23.2 °F 32.0 °F 100% 29.92 in 1.8 mi West 11.2 mph - N/A Snow Light Snow
9:30 AM 32.0 °F 23.2 °F 32.0 °F 100% 29.92 in 3.7 mi West 11.2 mph - N/A   Overcast
10:00 AM 32.0 °F 22.2 °F 32.0 °F 100% 29.92 in 5.0 mi West 13.4 mph - N/A   Overcast
10:30 AM 30.2 °F 19.1 °F 30.2 °F 100% 29.95 in 5.0 mi West 15.7 mph - N/A   Overcast
11:00 AM 30 °F - 28 °F 89% 30.02 in 4 mi West 11.2 mph - - Snow Light Snow
11:00 AM 30.2 °F 19.9 °F 30.2 °F 100% 29.95 in 5.0 mi West 13.4 mph - N/A   Overcast
11:30 AM 32.0 °F 20.6 °F 30.2 °F 93% 29.95 in 5.0 mi West 17.9 mph - N/A   Overcast
12:00 PM 32.0 °F 21.4 °F 30.2 °F 93% 29.95 in 5.0 mi West 15.7 mph - N/A   Overcast
12:30 PM 30.2 °F 18.3 °F 28.4 °F 93% 29.95 in 5.0 mi West 17.9 mph - N/A Snow Light Snow
1:00 PM 30.2 °F 19.1 °F 26.6 °F 86% 29.95 in 5.0 mi West 15.7 mph - N/A Snow Light Snow
1:30 PM 30.2 °F 18.3 °F 26.6 °F 86% 29.92 in 6.2 mi West 17.9 mph - N/A   Overcast
2:00 PM 29 °F - 22 °F 68% 30.04 in 7 mi West 11.2 mph - - Snow Light Snow
2:00 PM 30.2 °F 18.3 °F 26.6 °F 86% 29.95 in 6.2 mi West 17.9 mph - N/A   Overcast
2:30 PM 32.0 °F 21.4 °F 28.4 °F 87% 29.95 in 6.2 mi West 15.7 mph 26.8 mph N/A   Overcast
3:00 PM 32.0 °F 20.6 °F 26.6 °F 80% 29.95 in 6.2 mi West 17.9 mph - N/A   Overcast
3:30 PM 32.0 °F 21.4 °F 26.6 °F 80% 29.95 in 6.2 mi West 15.7 mph - N/A   Mostly Cloudy
4:00 PM 32.0 °F 21.4 °F 26.6 °F 80% 29.98 in 6.2 mi West 15.7 mph - N/A   Mostly Cloudy
4:30 PM 30.2 °F 19.1 °F 24.8 °F 80% 29.98 in 6.2 mi West 15.7 mph - N/A   Mostly Cloudy
5:00 PM 28 °F - 23 °F 74% 30.08 in 9 mi West 8.9 mph - -   Mostly Cloudy
5:00 PM 28.4 °F 17.6 °F 24.8 °F 86% 29.98 in 6.2 mi West 13.4 mph - N/A   Mostly Cloudy
5:30 PM 28.4 °F 16.7 °F 23.0 °F 80% 30.01 in 6.2 mi West 15.7 mph - N/A   Partly Cloudy
6:00 PM 28.4 °F 17.6 °F 23.0 °F 80% 30.01 in 6.2 mi West 13.4 mph - N/A   Partly Cloudy
6:30 PM 28.4 °F 17.6 °F 24.8 °F 86% 30.01 in 6.2 mi West 13.4 mph - N/A   Partly Cloudy
7:00 PM 26.6 °F 15.3 °F 23.0 °F 86% 30.04 in 6.2 mi West 13.4 mph - N/A   Partly Cloudy
7:30 PM 26.6 °F 15.3 °F 23.0 °F 86% 30.04 in 6.2 mi West 13.4 mph - N/A   Partly Cloudy
8:00 PM 27 °F - 22 °F 76% 30.13 in 9 mi West 2.2 mph - -   Mostly Cloudy
8:00 PM 26.6 °F 16.4 °F 23.0 °F 86% 30.04 in - West 11.2 mph - N/A   Clear
8:30 PM 28.4 °F 17.6 °F 24.8 °F 86% 30.04 in - West 13.4 mph - N/A   Clear
9:00 PM 28.4 °F 18.7 °F 24.8 °F 86% 30.06 in - West 11.2 mph - N/A   Clear
9:30 PM 24.8 °F 15.5 °F 21.2 °F 86% 30.06 in - West 8.9 mph - N/A   Clear
10:00 PM 21.2 °F 12.7 °F 17.6 °F 86% 30.06 in - West 6.7 mph - N/A   Clear
10:30 PM 24.8 °F 17.1 °F 21.2 °F 86% 30.09 in - West 6.7 mph - N/A   Clear
11:00 PM 25 °F - 18 °F 64% 30.19 in 9 mi Calm Calm - -   Scattered Clouds
11:00 PM 21.2 °F 15.0 °F 17.6 °F 86% 30.09 in - WNW 4.5 mph - N/A   Clear
11:30 PM 21.2 °F 12.7 °F 17.6 °F 86% 30.09 in - West 6.7 mph - N/A   Clear